COSMOS 2457 (733)

Last updated on Thu Mar 05 2026 00:03:33 GMT+0000 (Coordinated Universal Time)

1 36112U 09070B 26063.51655917 .00000009 00000+0 00000+0 0 9992 2 36112 64.9344 74.3876 0002178 196.4363 168.0672 2.13100837126206
UTC large
Height (km)
Speed (km/s)
/
Latitude / Longitude
Inclination (degrees)
Orbital Period (minutes)
Azimuth
Elevation
Range (km)
Doppler Factor

Next 0 passes for location: London (51.5072 / 0.1276)

Sorry there are no passes over London.